Hatteras, NC

6:01 PM EST on February 22, 2018 (GMT -0500)
Mitchell

Weather History for KHSE - November, 2013

Change the Weather History Date:

Monday, November 4, 2013

  Actual Average Record
Temperature  
Mean Temperature 58 °F 61 °F  
Max Temperature 61 °F 67 °F 81 °F (2003)
Min Temperature 54 °F 54 °F 33 °F (1963)
Degree Days  
Heating Degree Days 7 5  
Month to date heating degree days 11 20  
Since 1 July heating degree days 62 95  
Cooling Degree Days 0 1  
Month to date cooling degree days 13 4  
Year to date cooling degree days 1981 1694  
Growing Degree Days 7 (Base 50)    
Moisture  
Dew Point 45 °F    
Average Humidity 66    
Maximum Humidity 80    
Minimum Humidity 51    
Precipitation  
Precipitation 0.00 in 0.18 in 7.69 in (1985)
Month to date precipitation 0.94 0.73  
Year to date precipitation 46.42 49.55  
Snow  
Snow 0.00 in - - ()
Month to date snowfall 0.0  
Since 1 July snowfall 0.0  
Snow Depth 0.00 in    
Sea Level Pressure  
Sea Level Pressure 30.42 in    
Wind  
Wind Speed 12 mph (NNE)    
Max Wind Speed 17 mph    
Max Gust Speed 29 mph    
Visibility 10 miles    
Events      
T = Trace of Precipitation, MM = Missing Value Source: NWS Daily Summary

Daily Weather History Graph

Daily Weather History Graph

Search for Another Location

Airport or City:

Trip Planner

Search our weather history database for the weather conditions in past years. The results will help you decide how hot, cold, wet, or windy it might be!

Date:

Astronomy

Nov. 04, 2013 Rise Set
Actual Time 6:26 AM EST 5:04 PM EST
Civil Twilight 6:00 AM EST 5:31 PM EST
Nautical Twilight 5:30 AM EST 6:01 PM EST
Astronomical Twilight 5:00 AM EST 6:31 PM EST
Moon 7:32 AM EST (11/4) 6:09 PM EST (11/4)
Length of Visible Light 11h 30m
Length of Day
10h 37m
New Moon, 2% of the Moon is Illuminated
Nov 4
New Moon
Nov 10
First Quarter
Nov 17
Full
Nov 25
Last Quarter
Dec 2
New

Hourly Weather History & Observations

Time (EST) Temp. Dew Point Humidity Pressure Visibility Wind Dir Wind Speed Gust Speed Precip Events Conditions
12:51 AM 55.9 °F 39.9 °F 55% 30.32 in 10.0 mi NNE 10.4 mph 21.9 mph N/A   Clear
1:51 AM 55.0 °F 39.0 °F 55% 30.32 in 10.0 mi NNE 10.4 mph 19.6 mph N/A   Clear
2:51 AM 55.9 °F 39.0 °F 53% 30.33 in 10.0 mi NE 13.8 mph 23.0 mph N/A   Clear
3:51 AM 55.0 °F 39.0 °F 55% 30.34 in 10.0 mi NE 13.8 mph 26.5 mph N/A   Clear
4:51 AM 55.0 °F 37.9 °F 53% 30.38 in 10.0 mi NNE 12.7 mph 23.0 mph N/A   Clear
5:51 AM 55.0 °F 37.9 °F 53% 30.40 in 10.0 mi NNE 12.7 mph 23.0 mph N/A   Clear
6:51 AM 54.0 °F 39.0 °F 57% 30.40 in 10.0 mi NE 12.7 mph 20.7 mph N/A   Partly Cloudy
7:51 AM 55.0 °F 39.9 °F 57% 30.44 in 10.0 mi NE 10.4 mph 24.2 mph N/A   Mostly Cloudy
8:51 AM 55.9 °F 39.0 °F 53% 30.43 in 10.0 mi NE 15.0 mph 28.8 mph N/A   Clear
9:51 AM 57.0 °F 41.0 °F 55% 30.45 in 10.0 mi NE 10.4 mph 24.2 mph N/A   Partly Cloudy
10:51 AM 57.0 °F 39.9 °F 53% 30.47 in 10.0 mi NNE 12.7 mph 23.0 mph N/A   Scattered Clouds
11:51 AM 57.9 °F 39.9 °F 51% 30.46 in 10.0 mi NNE 11.5 mph 20.7 mph N/A   Scattered Clouds
12:51 PM 59.0 °F 42.1 °F 53% 30.44 in 10.0 mi NNE 11.5 mph 21.9 mph N/A   Overcast
1:51 PM 59.0 °F 44.1 °F 58% 30.43 in 10.0 mi NNE 15.0 mph 24.2 mph N/A   Mostly Cloudy
2:51 PM 57.0 °F 44.1 °F 62% 30.43 in 10.0 mi NNE 11.5 mph 21.9 mph N/A   Clear
3:51 PM 57.9 °F 45.0 °F 62% 30.43 in 10.0 mi NNE 11.5 mph 21.9 mph N/A   Clear
4:51 PM 57.0 °F 48.0 °F 72% 30.43 in 10.0 mi NNE 10.4 mph 21.9 mph N/A   Scattered Clouds
5:51 PM 57.0 °F 50.0 °F 77% 30.45 in 10.0 mi NNE 10.4 mph 25.3 mph N/A   Mostly Cloudy
6:51 PM 57.0 °F 50.0 °F 77% 30.44 in 10.0 mi NNE 13.8 mph 26.5 mph N/A   Overcast
7:04 PM 57.2 °F 50.0 °F 77% 30.44 in 10.0 mi NNE 11.5 mph 25.3 mph N/A   Overcast
7:47 PM 57.2 °F 51.8 °F 82% 30.43 in 10.0 mi NNE 13.8 mph 26.5 mph N/A   Overcast
7:51 PM 57.0 °F 51.1 °F 81% 30.43 in 10.0 mi NNE 13.8 mph 26.5 mph N/A   Overcast
8:51 PM 57.9 °F 52.0 °F 81% 30.44 in 10.0 mi NNE 12.7 mph 23.0 mph N/A   Overcast
9:51 PM 59.0 °F 52.0 °F 78% 30.44 in 10.0 mi NNE 13.8 mph 23.0 mph N/A   Overcast
10:51 PM 60.1 °F 53.1 °F 78% 30.43 in 10.0 mi NNE 13.8 mph 23.0 mph N/A   Overcast
11:51 PM 61.0 °F 55.0 °F 81% 30.42 in 10.0 mi NE 9.2 mph - N/A   Overcast